EW3349 Weather Reports


time (UTC)temp
C
wind
direction
speed
KPH
gust
KPH
rain 1hr
cm
rain 24hr
cm
rain mn
cm
humidity
%
barometer
mb
20260503224505 13 356 4.8 17.7 0.00 0.00 0.00 43 1008.6
20260503223521 13 304 4.8 19.3 0.00 0.00 0.00 41 1008.5
20260503222451 13 2 4.8 19.3 0.00 0.00 0.00 42 1008.3
20260503221512 13 344 0.0 9.7 0.00 0.00 0.00 44 1008.5
20260503220514 13 357 1.6 12.9 0.00 0.00 0.00 44 1008.6
20260503214349 13 338 4.8 9.7 0.00 0.00 0.00 42 1008.8
20260503213334 13 252 1.6 8.0 0.00 0.00 0.00 42 1008.5
20260503212346 13 336 4.8 22.5 0.00 0.00 0.00 40 1008.3
20260503211401 14 2 6.4 22.5 0.00 0.00 0.00 38 1008.4
20260503210353 15 11 4.8 14.5 0.00 0.00 0.00 39 1008.5
20260503205405 15 37 4.8 11.3 0.00 0.00 0.00 38 1008.5
20260503204402 15 134 1.6 8.0 0.00 0.00 0.00 38 1008.6
20260503203408 15 303 1.6 14.5 0.00 0.00 0.00 39 1008.7
20260503201244 14 315 1.6 16.1 0.00 0.00 0.00 38 1009.0
20260503200235 13 327 4.8 16.1 0.00 0.00 0.00 40 1009.3
20260503195210 13 25 1.6 14.5 0.00 0.00 0.00 40 1009.4
20260503194158 13 347 1.6 12.9 0.00 0.00 0.00 39 1009.6
20260503193222 13 37 6.4 12.9 0.00 0.00 0.00 40 1009.8
20260503192240 13 353 1.6 12.9 0.00 0.00 0.00 38 1010.0
20260503191257 13 340 4.8 12.9 0.00 0.00 0.00 37 1010.3
20260503185126 13 353 6.4 16.1 0.00 0.00 0.00 39 1010.6
20260503184146 13 178 6.4 16.1 0.00 0.00 0.00 39 1010.6
20260503183119 13 200 6.4 16.1 0.00 0.00 0.00 38 1010.8
20260503182133 12 36 4.8 17.7 0.00 0.00 0.00 39 1010.8
20260503181059 12 340 4.8 17.7 0.00 0.00 0.00 43 1011.1
20260503180040 12 319 4.8 22.5 0.00 0.00 0.00 41 1010.9
20260503175015 13 354 6.4 22.5 0.00 0.00 0.00 41 1010.9
20260503174010 13 4 4.8 16.1 0.00 0.00 0.00 42 1011.1
20260503173018 12 346 4.8 14.5 0.00 0.00 0.00 42 1011.3
20260503170854 12 158 4.8 11.3 0.00 0.00 0.00 47 1011.3
20260503150605 10 169 0.0 6.4 0.00 0.00 0.00 51 1012.7
20260503131129 6 341 1.6 4.8 0.00 0.00 0.00 60 1013.7
20260503130122 6 345 0.0 4.8 0.00 0.00 0.00 61 1013.8
20260503110725 0 115 0.0 0.0 0.00 0.00 0.00 92 1013.6
20260503090203 0 169 0.0 0.0 0.00 0.00 0.00 88 1013.1
20260503081132 0 169 0.0 0.0 0.00 0.00 0.00 87 1013.3
20260503080105 0 169 0.0 0.0 0.00 0.00 0.00 86 1013.3
20260503072115 1 169 0.0 0.0 0.00 0.00 0.00 83 1013.3
20260503054746 3 169 0.0 0.0 0.00 0.00 0.00 79 1013.5
20260503053712 3 169 0.0 0.0 0.00 0.00 0.00 78 1013.5
20260503052651 3 167 0.0 0.0 0.00 0.00 0.00 78 1013.6
20260503050453 3 188 0.0 0.0 0.00 0.00 0.00 78 1013.8
20260503044244 3 191 0.0 0.0 0.00 0.00 0.00 78 1013.9
20260503043211 3 162 0.0 0.0 0.00 0.00 0.00 77 1014.0
20260503042146 3 204 0.0 0.0 0.00 0.00 0.00 77 1014.1
20260503040047 3 165 0.0 0.0 0.00 0.00 0.00 76 1014.1
20260503035108 3 68 0.0 1.6 0.00 0.00 0.00 76 1014.1
20260503034102 3 320 0.0 1.6 0.00 0.00 0.00 76 1014.1
20260503033043 3 145 0.0 0.0 0.00 0.00 0.00 76 1014.1
20260503032024 3 70 0.0 0.0 0.00 0.00 0.00 76 1014.2
20260503031001 3 172 0.0 0.0 0.00 0.00 0.00 76 1014.2
20260503025943 4 214 0.0 0.0 0.00 0.00 0.00 77 1014.3
20260503024930 4 332 0.0 0.0 0.00 0.00 0.00 76 1014.3
20260503023932 4 148 0.0 0.0 0.00 0.00 0.00 76 1014.3
20260503022942 4 356 0.0 3.2 0.00 0.00 0.00 75 1014.4
20260503021927 4 56 0.0 0.0 0.00 0.00 0.00 75 1014.5
20260503014703 4 344 0.0 1.6 0.00 0.00 0.00 74 1014.5
20260503013652 4 44 0.0 0.0 0.00 0.00 0.00 74 1014.5
20260503012709 4 339 0.0 0.0 0.00 0.00 0.00 74 1014.5
20260503011646 4 53 0.0 0.0 0.00 0.00 0.00 74 1014.5
20260503010628 4 135 0.0 0.0 0.00 0.00 0.00 74 1014.4
20260503005624 4 166 0.0 1.6 0.00 0.00 0.00 75 1014.4
20260503004644 4 359 0.0 0.0 0.00 0.00 0.00 74 1014.3
20260503003654 4 30 0.0 0.0 0.00 0.00 0.00 74 1014.2
20260503002655 5 1 0.0 1.6 0.00 0.00 0.00 73 1014.1
20260503001647 5 340 0.0 0.0 0.00 0.00 0.00 74 1014.1
20260503000636 5 347 0.0 1.6 0.00 0.00 0.00 73 1014.1
20260502235637 5 8 0.0 0.0 0.00 0.00 0.00 73 1014.0
20260502234632 5 340 0.0 0.0 0.00 0.00 0.00 73 1014.0
20260502233629 5 321 0.0 4.8 0.00 0.00 0.00 72 1013.9
20260502232649 5 359 0.0 4.8 0.00 0.00 0.00 72 1013.9
20260502231654 5 355 0.0 1.6 0.00 0.00 0.00 72 1013.8
20260502230623 5 300 0.0 4.8 0.00 0.00 0.00 71 1013.8
20260502225629 5 353 0.0 4.8 0.00 0.00 0.00 71 1013.8